Find Starlink 32346

NORAD ID: 61849 Int'l Des: 2024-202 Owner: SPXS Country: US Constellation: starlink operational
LEOCIRCULAR

当前视图

正在加载3D地球...

About Starlink 32346

Starlink 32346 (NORAD 61849) is a starlink constellation satellite (v2 mini) launched Nov 7, 2024 by SPXS of US. It operates in LEO, CIRCULAR orbit with a mass of 730.00 kg.

关于 Starlink 32346

正在加载描述...

即将过境

Passes for default location (London). Set your location on the main map for personalized predictions.

高度历史

Loading altitude history...

两行轨道根数

1 61849U 24202E 26171.27002845 .00000760 00000-0 37130-4 0 9994
2 61849 43.0048 7.6256 0001170 267.4397 92.6321 15.27575577 91141
Epoch: Jun 20, 2026 • Age: 30 hours

当前状态

高度 486.8 km
速度 7.63 km/s
星下点 42.03°N, 5.72°E
发射日期 Nov 7, 2024
运行时间 1.6 years
类型 internet

技术详情

分类 Payload
质量 730.00 kg
干质量 700.00 kg
总质量 730.00 kg
长度 0.30 m
直径 4.10 m
跨度 29.00 m
形状 Box + pan
制造商 SPXS
平台类型 Starlink V2M
阶段状态 In Orbit
所有者/国家 SPXS/US

Most Searched